Content
SEND FEEDBACK

Daily
Averages
Monthly
Summary
United States of America

SHANNON, GEORGIA


Home > North America > United States > Georgia
Elevation: 640 feet     Latitude: 34 21N     Longitude: 085 10W

WEATHER
 
SELECT A DAY
Number of Records: 210,946;   Date Range: 1/1/95 - 9/18/14
 
SHARE

PRINT THIS DATA

[ ← Previous Day ]
WEATHER ALMANAC - MARCH 21, 2014
[ Next Day → ]
[ °C ]   °F
Weather ElementAverageHighLow
Temperature50.6 °F70 °F (5:53 pm)30 °F (6:53 am)
Dewpoint31.8 °F39 °F (11:53 pm)28 °F (6:53 am)
Humidity56.5 %96 % (5:53 am)22 % (3:53 pm)
Barometer30.08 in30.17 in (10:53 am)29.99 in (6:53 pm)
Wind Speed2 mph10.4 mph (5:53 pm)
Wind Gust16.1 mph (5:53 pm)
Weather ElementAverage
Visibility9.3 mi
Wind DirectionENE (56.7 °)

Weather ElementTotal
Precipitation---
Heating Degree Days15 (Base 65)
Averaged from 24 records on March 21, 2014
WEATHER CONDITIONS BREAKOUT
WIND DIRECTION BREAKOUT
WEATHER BY HOUR - MARCH 21, 2014
[ °C ]   °F
Local TimeTemperatureDewpointHumidityBarometerVisibilityWind DirectionWind SpeedGust SpeedPrecipitationEventsConditions
1:53 AM37.0 °F33.1 °F86 %30.11 in10.0 miCalmClear
2:53 AM35.1 °F32.0 °F89 %30.11 in10.0 miCalmClear
3:53 AM34.0 °F32.0 °F92 %30.10 in10.0 miCalmClear
4:53 AM33.1 °F30.0 °F89 %30.11 in10.0 miCalmClear
5:53 AM30.9 °F30.0 °F96 %30.11 in10.0 miCalmClear
6:53 AM30.0 °F28.0 °F92 %30.11 in10.0 miCalmClear
7:53 AM30.9 °F28.0 °F89 %30.14 in10.0 miCalmClear
8:53 AM35.1 °F32.0 °F89 %30.14 in10.0 miCalmClear
9:53 AM43.0 °F35.1 °F74 %30.14 in10.0 miCalmClear
10:53 AM50.0 °F33.1 °F52 %30.17 in10.0 miCalmClear
11:53 AM57.0 °F33.1 °F40 %30.16 in10.0 miSouth (190°)3.5 mphClear
12:53 PM62.1 °F28.9 °F29 %30.13 in10.0 miSouth (190°)5.8 mphClear
1:53 PM64.9 °F28.9 °F26 %30.10 in10.0 miSouth (170°)5.8 mphClear
2:53 PM66.9 °F30.0 °F25 %30.06 in10.0 miVariable3.5 mphClear
3:53 PM68.0 °F28.0 °F22 %30.02 in10.0 miSouth (180°)4.6 mphClear
4:53 PM68.0 °F28.9 °F23 %30.01 in10.0 miVariable4.6 mphClear
5:53 PM70.0 °F28.9 °F22 %30.00 in10.0 miSouth (190°)10.4 mph16.1 mphClear
6:53 PM68.0 °F30.0 °F24 %29.99 in10.0 miSSE (160°)6.9 mphClear
7:53 PM63.0 °F30.9 °F30 %30.00 in10.0 miCalmClear
8:53 PM57.0 °F32.0 °F39 %30.01 in8.0 miCalmClear
9:53 PM55.0 °F36.0 °F49 %30.02 in10.0 miWest (280°)3.5 mphClear
10:53 PM53.1 °F37.0 °F55 %30.03 in8.0 miCalmClear
11:09 PM51.8 °F37.4 °F58 %30.04 in2.0 miCalmHaze
11:53 PM50.0 °F39.0 °F66 %30.02 in4.0 miCalmHaze
Hourly data recorded from KRMG, located miles away from Shannon, Georgia







STORIES FROM OUR PARTNERS